[[{"header":{"parameterUnit":"m.s-1","parameterCategory":1,"la1":30.2991,"la2":30.254,"lo1":-89.0895,"lo2":-89.0444,"dy":0.0017,"dx":0.0017,"nx":28,"ny":28,"refTime":"2024-04-06T09:00:00:Z","depth":0,"parameterNumber":2,"parameterNumberName":"U-component_of_WINDS"},"data":[0,0,0,0,0,0,0,0,0,0,0,0,0,0,0,0,0,0,0,0,0,0,0,0,0,0,0,0,0,0,0,0,0,0,0,0,0,0,0,0,0,0,0,0,0,0,0,0,0,0,0,0,0,0,0,0,0,0,-5.9043,-5.9043,0,-5.9079,-5.9079,-5.908,-5.8945,-5.8941,-5.8937,-5.8933,-5.8972,-5.8977,-5.8981,0,0,0,0,0,0,0,0,0,0,0,0,0,-5.886,-5.8865,-5.9043,-5.9043,-5.9044,-5.9079,-5.9079,-5.908,-5.8946,-5.8941,-5.8936,-5.8932,-5.897,-5.8976,-5.8982,0,0,0,0,0,0,0,0,0,0,0,0,0,-5.8923,-5.8866,-5.9043,-5.8981,-5.8976,-5.9079,-5.9079,-5.908,-5.8947,-5.8941,-5.8935,-5.8929,-5.8969,-5.8975,-5.8983,-5.9147,0,0,-5.9004,-5.9007,0,0,0,0,0,0,0,0,-5.8919,-5.8929,-5.899,-5.8986,-5.898,-5.9001,-5.9029,-5.9102,-5.8948,-5.8958,-5.8933,-5.8926,-5.8987,-5.8992,-5.9012,-5.9149,-5.915,-5.9005,-5.9009,-5.9012,-5.9014,0,0,0,0,0,0,0,-5.8915,-5.8927,-5.9057,-5.8991,-5.8985,-5.8952,-5.8955,-5.9042,-5.9006,-5.8957,-5.8947,-5.8953,-5.8983,-5.9005,-5.9012,-5.9151,-5.9005,-5.9011,-5.9016,-5.9018,-5.9426,-5.9432,0,0,0,0,0,0,-5.8919,-5.8924,-5.9056,-5.9058,-5.8934,-5.8961,-5.8963,-5.9001,-5.9004,-5.8999,-5.8958,-5.8947,-5.8996,-5.9004,-5.9013,-5.9206,-5.9012,-5.9019,-5.9023,-5.9419,-5.9427,-5.9434,0,0,0,0,0,0,-5.8915,-5.8932,-5.9054,-5.8989,-5.9002,-5.897,-5.9013,-5.9004,-5.9027,-5.9005,-5.8998,-5.8988,-5.8992,-5.9003,-5.9115,-5.9206,-5.9022,-5.9029,-5.9412,-5.9422,-5.9431,-5.9594,0,0,0,0,0,0,-5.8911,-5.8931,-5.8993,-5.8991,-5.9006,-5.9156,-5.9019,-5.901,-5.9039,-5.9025,-5.9031,-5.9027,-5.8988,-5.9105,-5.9122,-5.9212,-5.9034,-5.9403,-5.9416,-5.9428,-5.9581,-5.9608,-5.9632,0,0,0,0,0,-5.8904,-5.9037,-5.8997,-5.9013,-5.9082,-5.9161,-5.917,-5.9122,-5.9047,-5.9109,-5.9096,-5.9026,-5.9193,-5.9117,-5.9135,-5.9229,-5.9397,-5.9412,-5.9427,-5.9569,-5.9603,-5.9632,0,0,0,0,0,0,-5.9051,-5.9036,-5.899,-5.9127,-5.9146,-5.9138,-5.9215,-5.9159,-5.92,-5.9185,-5.9124,-5.9127,-5.925,-5.9251,-5.9167,-5.9389,-5.9282,-5.9301,-5.9384,-5.9416,-5.9442,-5.9439,-5.904,0,0,0,0,0,-5.9099,-5.9164,-5.9147,-5.9269,-5.9281,-5.9247,-5.928,-5.9241,-5.9259,-5.9267,-5.9261,-5.9282,-5.9339,-5.9378,-5.9429,-5.958,-5.958,-5.9654,-5.968,-5.9701,-5.9718,-5.9799,-5.9832,-5.9483,-5.9483,-5.9482,0,0,-5.9198,-5.9199,-5.9243,-5.9299,-5.9309,-5.9379,-5.9255,-5.9333,-5.9384,-5.9279,-5.9384,-5.9381,-5.94,-5.9533,-5.9592,-5.9538,-5.9815,-5.972,-5.9737,-5.9742,-5.9818,-5.9851,-5.9881,-5.9493,-5.9491,-5.9489,0,0,-5.9416,-5.9422,-5.9525,-5.9538,-5.9556,-5.9532,-5.9557,-5.9558,-5.9552,-5.9657,-5.958,-5.964,-5.974,-5.9757,-5.9778,-6.0005,-5.9943,-6.0023,-6.0158,-6.0238,-6.0266,-6.029,-6.0371,-6.0401,-6.004,-6.0041,-6.0041,0,-5.9538,-5.9639,-5.9585,-5.9669,-5.9696,-5.9604,-5.9708,-5.9724,-5.9758,-5.9779,-5.9718,-5.9841,-5.9848,-5.9984,-6.0039,-6.006,-6.0087,-6.0022,-6.0266,-6.029,-6.0311,-6.0389,-6.0419,-6.0051,-6.0049,-6.0048,-6.0048,0,-5.9788,-5.986,-5.994,-5.9976,-6.0012,-6.0106,-6.0067,-6.011,-6.0069,-6.0053,-6.0162,-6.0166,-6.0217,-6.0247,-6.0208,-6.0379,-6.0344,-6.0276,-6.0167,-6.0355,-6.0427,-6.0456,-6.0064,-6.0061,-6.0058,-6.0056,0,0,-6.0097,-6.0103,-6.0133,-6.0149,-6.0162,-6.0217,-6.0307,-6.0357,-6.0396,-6.0423,-6.0497,-6.0584,-6.0521,-6.0546,-6.0508,-6.0579,-6.0759,-6.0501,-6.0501,-6.055,-6.0949,-6.1001,-6.1036,-6.0718,-6.0724,-6.0728,-6.0947,0,-6.0311,-6.0465,-6.042,-6.0575,-6.0641,-6.0555,-6.0634,-6.0652,-6.0639,-6.0694,-6.068,-6.0743,-6.0654,-6.0669,-6.0735,-6.0723,-6.0838,-6.0707,-6.0788,-6.0792,-6.0786,-6.1073,-6.1127,-6.1334,-6.0975,-6.098,-6.0983,0,-6.0581,-6.0619,-6.0781,-6.0784,-6.081,-6.0882,-6.0924,-6.0978,-6.0997,-6.0982,-6.1012,-6.096,-6.105,-6.0941,-6.1065,-6.0977,-6.1007,-6.1007,-6.1014,-6.102,-6.0899,-6.1087,-6.1398,-6.143,-6.1026,-6.1023,-6.102,0,-6.0791,-6.0883,-6.0991,-6.1007,-6.1014,-6.1067,-6.1072,-6.1085,-6.1118,-6.1156,-6.1177,-6.1225,-6.1252,-6.1291,-6.1254,-6.1178,-6.1384,-6.1272,-6.1376,-6.1377,-6.1423,-6.1421,-6.1745,-6.1443,-6.1443,-6.1442,-6.1442,0,-6.1035,-6.1137,-6.1086,-6.1153,-6.1266,-6.1214,-6.1327,-6.1323,-6.1335,-6.1401,-6.133,-6.1393,-6.134,-6.1399,-6.1371,-6.1478,-6.1491,-6.1483,-6.1474,-6.1489,-6.1491,-6.1509,-6.1493,-6.145,-6.1449,-6.1447,-6.1446,0,-6.1288,-6.1258,-6.1371,-6.1369,-6.1371,-6.1454,-6.1453,-6.1515,-6.1498,-6.1582,-6.1598,-6.1572,-6.1638,-6.1605,-6.1673,-6.1654,-6.1794,-6.1765,-6.1787,-6.178,-6.1886,-6.1877,-6.2233,-6.2277,-6.1947,-6.1951,-6.1953,0,-6.1446,-6.1522,-6.1529,-6.1568,-6.1578,-6.1641,-6.1675,-6.1627,-6.1666,-6.1694,-6.1753,-6.1813,-6.1858,-6.1968,-6.1955,-6.2007,-6.198,-6.2102,-6.1988,-6.2001,-6.1983,-6.1979,-6.1986,-6.2124,-6.2128,-6.2131,-6.2134,0,-6.1729,-6.171,-6.1761,-6.1808,-6.1851,-6.1885,-6.1914,-6.195,-6.1903,-6.195,-6.2016,-6.2052,-6.2122,-6.2182,-6.2228,-6.2234,-6.2178,-6.217,-6.2197,-6.2213,-6.2223,-6.222,-6.185,-6.2162,-6.2159,-6.2157,-6.2156,-6.2154,-6.1939,-6.2003,-6.2019,-6.2078,-6.2095,-6.2124,-6.2183,-6.2174,-6.2228,-6.2281,-6.225,-6.2328,-6.2347,-6.2402,-6.2417,-6.2478,-6.243,-6.2468,-6.2478,-6.2489,-6.2503,-6.2213,-6.2486,-6.2485,-6.2484,-6.2484,-6.2483,0,-6.2218,-6.2224,-6.228,-6.2322,-6.237,-6.2312,-6.2341,-6.2385,-6.2454,-6.2476,-6.2522,-6.26,-6.2658,-6.2651,-6.2705,-6.2756,-6.2731,-6.2772,-6.2768,-6.277,-6.2543,-6.2514,-6.2791,-6.2791,-6.2791,-6.2791,-6.2791,-6.2791,-6.2369,-6.2476,-6.246,-6.2575,-6.258,-6.2655,-6.2677,-6.2704,-6.2721,-6.2811,-6.2859,-6.2854,-6.2865,-6.2919,-6.2971,-6.2968,-6.2991,-6.3042,-6.3029,-6.2817,-6.2786,-6.2757,-6.273,-6.3047,-6.3048,-6.3251,-6.3253,-6.3254]},{"header":{"parameterUnit":"m.s-1","parameterCategory":1,"la1":30.2991,"la2":30.254,"lo1":-89.0895,"lo2":-89.0444,"dy":0.0017,"dx":0.0017,"nx":28,"ny":28,"refTime":"2024-04-06T09:00:00:Z","depth":0,"parameterNumber":3,"parameterNumberName":"V-component_of_WINDS"},"data":[0,0,0,0,0,0,0,0,0,0,0,0,0,0,0,0,0,0,0,0,0,0,0,0,0,0,0,0,0,0,0,0,0,0,0,0,0,0,0,0,0,0,0,0,0,0,0,0,0,0,0,0,0,0,0,0,0,0,-0.8422,-0.8422,0,-0.8427,-0.8427,-0.8427,-0.8406,-0.8406,-0.8405,-0.8404,-0.8411,-0.8411,-0.8412,0,0,0,0,0,0,0,0,0,0,0,0,0,-0.8394,-0.8395,-0.8422,-0.8422,-0.8422,-0.8427,-0.8427,-0.8427,-0.8406,-0.8406,-0.8405,-0.8404,-0.841,-0.8411,-0.8412,0,0,0,0,0,0,0,0,0,0,0,0,0,-0.8403,-0.8395,-0.8422,-0.8412,-0.8411,-0.8427,-0.8427,-0.8427,-0.8407,-0.8406,-0.8405,-0.8404,-0.841,-0.8411,-0.8412,-0.8437,0,0,-0.8415,-0.8416,0,0,0,0,0,0,0,0,-0.8403,-0.8404,-0.8414,-0.8413,-0.8412,-0.8415,-0.8419,-0.843,-0.8407,-0.8408,-0.8404,-0.8403,-0.8413,-0.8414,-0.8417,-0.8438,-0.8438,-0.8416,-0.8416,-0.8417,-0.8417,0,0,0,0,0,0,0,-0.8402,-0.8404,-0.8424,-0.8414,-0.8413,-0.8407,-0.8408,-0.8421,-0.8416,-0.8408,-0.8407,-0.8408,-0.8412,-0.8416,-0.8417,-0.8438,-0.8416,-0.8417,-0.8417,-0.8418,-0.8478,-0.8479,0,0,0,0,0,0,-0.8403,-0.8404,-0.8424,-0.8424,-0.8405,-0.8409,-0.8409,-0.8415,-0.8416,-0.8415,-0.8408,-0.8407,-0.8414,-0.8415,-0.8417,-0.8445,-0.8417,-0.8418,-0.8418,-0.8477,-0.8478,-0.8479,0,0,0,0,0,0,-0.8402,-0.8405,-0.8423,-0.8413,-0.8415,-0.841,-0.8417,-0.8416,-0.8419,-0.8416,-0.8414,-0.8413,-0.8413,-0.8415,-0.8432,-0.8445,-0.8418,-0.8419,-0.8476,-0.8477,-0.8479,-0.8503,0,0,0,0,0,0,-0.8402,-0.8405,-0.8415,-0.8414,-0.8416,-0.8439,-0.8418,-0.8416,-0.8421,-0.8418,-0.842,-0.8419,-0.8413,-0.843,-0.8433,-0.8446,-0.842,-0.8475,-0.8477,-0.8478,-0.8501,-0.8505,-0.8509,0,0,0,0,0,-0.8401,-0.8422,-0.8415,-0.8418,-0.8428,-0.844,-0.8441,-0.8433,-0.8422,-0.8431,-0.8429,-0.8419,-0.8443,-0.8432,-0.8435,-0.8449,-0.8474,-0.8476,-0.8478,-0.85,-0.8504,-0.8509,0,0,0,0,0,0,-0.8425,-0.8422,-0.8414,-0.8436,-0.8438,-0.8436,-0.8448,-0.8439,-0.8445,-0.8443,-0.8433,-0.8434,-0.8452,-0.8452,-0.844,-0.8472,-0.8456,-0.8459,-0.8472,-0.8477,-0.848,-0.848,-0.8421,0,0,0,0,0,-0.8433,-0.8443,-0.8439,-0.8458,-0.846,-0.8454,-0.8459,-0.8452,-0.8454,-0.8456,-0.8454,-0.8457,-0.8465,-0.8471,-0.8478,-0.8501,-0.85,-0.8511,-0.8515,-0.8518,-0.8521,-0.8532,-0.8537,-0.8486,-0.8486,-0.8486,0,0,-0.845,-0.8449,-0.8456,-0.8463,-0.8464,-0.8474,-0.8455,-0.8467,-0.8474,-0.8457,-0.8473,-0.8472,-0.8474,-0.8494,-0.8502,-0.8494,-0.8535,-0.8521,-0.8524,-0.8525,-0.8535,-0.8539,-0.8544,-0.8488,-0.8487,-0.8487,0,0,-0.8485,-0.8485,-0.8501,-0.8502,-0.8503,-0.8499,-0.8502,-0.8501,-0.85,-0.8515,-0.8502,-0.8511,-0.8525,-0.8527,-0.853,-0.8563,-0.8553,-0.8565,-0.8586,-0.8596,-0.86,-0.8604,-0.8615,-0.8619,-0.8568,-0.8568,-0.8568,0,-0.8505,-0.852,-0.851,-0.8522,-0.8525,-0.851,-0.8525,-0.8527,-0.8531,-0.8533,-0.8524,-0.854,-0.8541,-0.856,-0.8568,-0.8571,-0.8574,-0.8566,-0.86,-0.8604,-0.8607,-0.8618,-0.8622,-0.857,-0.8569,-0.8569,-0.8569,0,-0.8544,-0.8554,-0.8567,-0.857,-0.8574,-0.8588,-0.858,-0.8586,-0.8579,-0.8575,-0.859,-0.8589,-0.8596,-0.86,-0.8593,-0.8618,-0.8612,-0.8602,-0.8586,-0.8613,-0.8623,-0.8627,-0.8572,-0.8571,-0.8571,-0.857,0,0,-0.8597,-0.8593,-0.8598,-0.8598,-0.8598,-0.8605,-0.8617,-0.8623,-0.8628,-0.863,-0.864,-0.8652,-0.8641,-0.8644,-0.8638,-0.8647,-0.8673,-0.8635,-0.8635,-0.8642,-0.8698,-0.8706,-0.8711,-0.8666,-0.8667,-0.8667,-0.8698,0,-0.8631,-0.8652,-0.8642,-0.8664,-0.8673,-0.8657,-0.8667,-0.8668,-0.8664,-0.8671,-0.8667,-0.8675,-0.8661,-0.8663,-0.8671,-0.8668,-0.8684,-0.8665,-0.8675,-0.8675,-0.8675,-0.8717,-0.8725,-0.8754,-0.8702,-0.8703,-0.8703,0,-0.8674,-0.8677,-0.8699,-0.8696,-0.8699,-0.8709,-0.8712,-0.8718,-0.8718,-0.8715,-0.8717,-0.8708,-0.8719,-0.8703,-0.8718,-0.8706,-0.8709,-0.8707,-0.8708,-0.8709,-0.8691,-0.8718,-0.8764,-0.8768,-0.8709,-0.8709,-0.8708,0,-0.8709,-0.8719,-0.8733,-0.8734,-0.8731,-0.8738,-0.8736,-0.8735,-0.8738,-0.8741,-0.8743,-0.8748,-0.875,-0.8754,-0.8746,-0.8734,-0.8762,-0.8745,-0.8759,-0.8759,-0.8766,-0.8766,-0.8812,-0.8768,-0.8768,-0.8768,-0.8768,0,-0.8748,-0.8763,-0.8749,-0.8758,-0.8773,-0.8761,-0.8777,-0.8774,-0.8772,-0.878,-0.8767,-0.8774,-0.8763,-0.8769,-0.8763,-0.8776,-0.8777,-0.8775,-0.8773,-0.8776,-0.8776,-0.8778,-0.8776,-0.8769,-0.8769,-0.8769,-0.8768,0,-0.8791,-0.8782,-0.8797,-0.8791,-0.879,-0.8801,-0.8796,-0.8804,-0.8799,-0.8809,-0.881,-0.8802,-0.8809,-0.88,-0.8807,-0.8802,-0.882,-0.8815,-0.882,-0.8818,-0.8833,-0.8832,-0.8883,-0.8888,-0.884,-0.8841,-0.8841,0,-0.8816,-0.8827,-0.8822,-0.8825,-0.8825,-0.8831,-0.8834,-0.8823,-0.8826,-0.8826,-0.8833,-0.8838,-0.8842,-0.8853,-0.8848,-0.8852,-0.8847,-0.8865,-0.8848,-0.885,-0.8847,-0.8846,-0.8847,-0.8868,-0.8869,-0.8869,-0.887,0,-0.8863,-0.8857,-0.8862,-0.8864,-0.8868,-0.8869,-0.887,-0.8874,-0.8862,-0.8867,-0.8872,-0.8875,-0.888,-0.8886,-0.8888,-0.8887,-0.8876,-0.8875,-0.8878,-0.8882,-0.8884,-0.8882,-0.8829,-0.8874,-0.8873,-0.8873,-0.8873,-0.8873,-0.8897,-0.8905,-0.8902,-0.8907,-0.8906,-0.8906,-0.8913,-0.8908,-0.8912,-0.8915,-0.8908,-0.8916,-0.8914,-0.8916,-0.8915,-0.8921,-0.8913,-0.8919,-0.892,-0.8921,-0.8923,-0.8883,-0.8921,-0.8921,-0.8921,-0.8921,-0.8921,0,-0.8942,-0.8939,-0.8944,-0.8944,-0.8948,-0.8936,-0.8936,-0.894,-0.8947,-0.8945,-0.8949,-0.8955,-0.8959,-0.8954,-0.8957,-0.8962,-0.8958,-0.8964,-0.8963,-0.8963,-0.893,-0.8927,-0.8967,-0.8967,-0.8967,-0.8967,-0.8967,-0.8967,-0.8966,-0.8978,-0.8972,-0.8984,-0.898,-0.8987,-0.8988,-0.8988,-0.8987,-0.8994,-0.8997,-0.8993,-0.899,-0.8992,-0.8996,-0.8994,-0.8996,-0.9004,-0.9,-0.897,-0.8965,-0.8961,-0.8958,-0.9004,-0.9004,-0.9032,-0.9032,-0.9033]}]]